Theta_e
332 331 329 325 322 321 321 318 317 313 313 313 313 312 309 308 310 310 310 308 308 308 308 308 309 309 309 309 310 310 308 307 305 307 308 309 308 305 303 301 303 303 303
332 330 327 323 322 321 320 320 317 314 313 313 313 312 310 308 306 308 310 310 309 309 310 309 309 308 308 310 308 307 308 309 307 308 308 308 305 304 301 300 303 304 302
331 329 327 325 322 321 320 318 316 316 314 313 313 312 310 309 308 306 308 309 310 310 309 309 308 307 310 306 308 310 310 311 309 307 306 305 303 301 300 302 304 302 302
329 328 327 325 323 322 320 317 317 316 316 314 313 312 311 310 309 306 307 308 310 310 309 308 308 309 306 311 311 311 311 309 306 304 303 301 300 301 302 303 302 302 302
328 327 327 325 322 321 319 318 316 315 315 314 313 312 311 310 309 308 307 307 308 308 308 308 309 308 311 310 310 309 305 303 303 300 300 300 301 302 302 301 301 302 302
329 328 327 325 323 322 320 316 315 314 314 314 313 312 312 311 311 310 310 308 307 308 308 309 309 311 308 308 305 304 301 300 300 301 300 300 299 300 301 301 301 300 301
329 327 327 325 324 322 320 316 315 314 313 313 313 312 312 312 311 311 310 310 309 308 309 309 311 306 308 303 301 300 300 300 300 300 300 301 300 301 301 301 302 301 300
327 326 325 325 322 321 319 316 315 314 313 313 312 312 313 313 313 311 310 309 308 308 309 310 308 306 305 300 301 301 301 301 302 301 302 302 302 302 302 302 302 301 301
325 325 325 324 321 321 318 316 315 314 314 313 314 314 314 313 311 310 311 310 309 309 310 311 305 306 301 300 301 302 302 302 302 302 302 302 302 301 301 302 302 302 302
325 325 325 324 322 321 319 318 316 317 313 314 315 315 312 313 311 311 311 311 311 311 311 306 304 304 300 300 300 301 302 302 302 302 302 301 301 300 301 301 302 301 302
328 327 325 323 323 321 320 318 318 316 314 315 316 315 313 312 312 312 312 311 311 312 308 303 303 303 301 300 300 300 301 302 302 301 301 300 301 301 301 300 300 301 301
325 327 326 326 324 322 320 318 317 317 315 317 316 315 314 313 312 312 312 311 312 307 303 303 303 303 302 302 301 300 301 302 300 301 300 300 299 299 299 299 299 299 299
322 324 325 326 325 323 320 318 316 316 316 316 316 315 314 313 312 312 312 312 305 303 301 297 297 299 299 300 300 300 302 299 299 299 300 299 298 298 298 298 298 298 297
321 321 324 324 324 323 320 318 316 316 316 316 316 315 313 311 312 312 310 304 302 298 299 300 301 301 302 302 301 301 301 299 298 298 299 299 298 297 297 298 297 297 295
320 321 321 322 322 321 318 317 317 318 317 317 315 311 311 311 311 311 308 303 298 299 300 300 300 300 301 301 301 301 300 299 299 298 298 297 297 298 298 297 295 294 295
320 320 320 321 320 319 317 317 317 318 317 317 316 314 313 311 311 308 302 298 299 300 300 300 300 300 300 301 301 300 300 300 299 299 298 297 297 295 292 291 291 292 293
320 319 320 321 320 318 314 314 316 316 318 318 316 313 311 311 308 299 297 299 300 300 301 300 299 297 297 298 299 299 299 299 298 297 296 294 291 289 289 289 290 290 291
318 318 318 320 319 317 314 314 315 315 314 310 311 311 308 301 298 298 300 300 300 300 299 298 297 297 298 298 298 296 296 296 296 294 292 289 288 288 288 288 289 289 290
317 319 318 320 318 315 313 313 316 314 307 306 301 299 299 299 300 300 300 300 300 299 298 297 297 297 296 296 295 295 296 295 293 290 288 287 288 287 288 288 289 288 289
316 318 318 318 316 311 311 311 311 307 303 300 299 300 300 300 300 301 301 300 299 298 297 297 297 296 295 295 295 295 294 292 290 289 288 288 288 287 287 289 289 289 290
314 318 318 317 312 310 311 311 306 302 301 300 300 300 300 301 301 300 298 298 297 297 297 296 296 295 295 295 294 293 291 290 290 289 288 287 287 287 287 288 289 290 290
316 318 316 314 312 311 311 311 306 303 301 300 300 300 302 301 299 298 297 297 296 296 295 295 295 295 295 294 293 291 290 289 287 287 287 286 286 287 287 288 289 290 291
317 318 317 315 313 312 309 309 308 303 302 302 302 302 301 299 297 296 296 296 295 294 294 295 295 295 294 292 291 290 288 287 288 288 287 286 287 287 287 288 289 291 292
316 317 318 317 312 310 308 306 305 304 302 301 300 300 298 297 296 295 294 294 294 295 295 295 294 292 291 290 290 287 288 288 288 288 287 287 286 287 287 288 290 292 293
318 318 318 314 311 310 309 305 304 302 300 300 299 297 296 296 295 294 294 294 294 293 293 293 292 291 290 289 287 287 288 289 288 289 289 288 289 289 288 289 290 292 294
316 317 314 312 311 310 305 302 301 300 299 298 297 296 295 294 293 293 293 293 293 292 292 291 291 290 288 288 288 287 288 289 290 290 289 289 290 290 290 292 293 294 294
Wind_Speed
20 23 24 23 23 23 26 27 26 24 24 23 22 20 17 11 11 11 9 8 8 7 8 10 11 9 9 10 11 13 14 12 8 17 17 18 15 15 17 17 17 15 15
19 24 25 23 25 25 25 28 27 26 27 27 24 23 17 12 11 11 11 10 11 10 11 10 11 11 12 13 14 16 17 15 14 13 18 17 16 18 19 19 14 14 16
20 22 23 22 26 27 27 28 26 27 30 29 27 24 18 14 12 11 12 11 11 11 10 12 12 15 15 16 17 18 17 16 10 10 11 15 17 21 21 14 12 15 17
21 25 26 26 26 27 28 29 26 27 30 30 27 23 18 15 12 11 12 12 13 13 13 14 15 14 16 18 19 19 14 7 3 5 11 12 18 18 11 10 13 17 18
22 25 29 29 28 26 27 28 26 26 26 27 26 22 18 15 11 11 13 12 13 14 15 16 13 14 16 14 10 6 4 6 9 10 10 9 11 11 10 11 14 15 16
25 29 28 28 28 28 27 29 26 24 26 26 26 22 21 17 10 11 13 16 15 16 15 10 11 13 8 3 3 4 7 7 7 6 7 8 11 15 15 14 13 11 5
25 27 26 26 28 29 28 30 29 30 27 24 25 23 20 17 11 14 13 13 15 14 11 11 12 7 2 1 3 5 5 6 7 8 11 13 14 16 16 16 12 12 11
23 23 23 26 28 29 30 32 30 30 25 23 26 22 18 18 13 13 11 12 14 12 11 11 8 4 3 1 3 5 6 8 8 8 10 14 16 17 16 17 17 15 17
17 19 21 25 25 27 31 34 32 27 25 26 23 19 18 13 10 11 11 11 12 11 10 10 6 6 6 3 3 6 9 10 9 10 14 14 14 13 13 15 12 9 8
14 17 20 24 25 28 30 33 32 27 27 26 23 19 17 11 8 8 9 10 11 10 9 8 7 8 9 6 6 7 10 13 16 19 17 16 15 14 13 11 12 11 10
14 13 17 21 25 28 28 28 29 25 22 25 16 14 11 8 9 8 8 11 10 9 7 7 7 11 12 9 9 9 10 14 18 16 14 14 12 11 9 8 9 11 11
16 14 17 19 23 25 26 24 26 29 30 23 18 14 12 9 9 10 9 9 9 7 6 5 8 9 10 11 12 10 10 12 14 15 13 15 14 14 12 11 11 14 13
18 16 15 19 23 24 24 24 26 28 25 21 17 15 12 9 11 7 8 7 6 5 4 5 6 7 9 11 9 8 9 9 12 14 14 16 14 16 15 15 15 15 18
19 16 16 16 18 21 23 23 19 21 19 21 15 15 8 10 10 10 9 8 6 4 2 3 6 8 8 7 7 8 8 8 11 13 14 16 16 17 15 15 16 20 21
16 17 15 16 14 18 18 19 24 26 27 25 19 13 19 14 12 10 7 7 5 5 3 5 7 8 8 9 11 10 10 9 11 13 14 16 16 13 13 14 17 18 13
16 17 13 12 14 16 21 18 19 23 20 18 15 16 14 11 8 10 8 8 7 4 5 7 8 7 8 10 12 13 13 12 12 14 16 16 12 13 18 19 16 14 15
16 17 13 10 14 17 20 20 22 21 20 19 14 12 10 12 12 10 11 8 5 4 6 3 3 5 8 10 12 10 11 13 15 15 12 11 16 17 17 17 16 14 14
17 16 12 13 16 22 21 19 21 22 20 12 11 13 16 15 12 11 8 6 5 6 5 3 3 5 7 7 6 7 11 13 11 11 16 17 16 15 16 16 15 14 13
19 18 14 12 15 19 20 22 27 25 19 24 22 20 16 14 12 8 8 7 7 6 3 2 3 2 3 5 8 10 10 9 14 17 17 16 16 14 15 14 13 13 12
19 17 13 13 16 19 20 24 26 24 25 27 26 23 18 13 8 6 6 5 4 2 1 3 4 5 6 8 8 8 11 15 17 18 18 18 16 14 14 12 10 9 9
19 14 11 13 16 20 27 25 21 23 26 25 22 18 14 10 6 9 8 5 1 2 3 4 6 7 8 6 8 11 15 18 19 19 18 16 14 13 12 10 10 9 8
16 12 14 17 19 23 28 30 26 23 24 23 19 15 11 9 12 9 6 2 0 2 3 5 6 6 6 8 12 15 18 19 19 18 17 15 14 13 11 9 9 10 9
16 14 14 19 21 22 20 23 23 23 24 21 18 16 15 15 11 8 5 2 1 2 3 3 4 5 8 11 13 17 18 18 19 18 17 15 13 11 9 8 8 10 9
17 16 18 18 22 20 20 19 21 23 23 21 20 20 18 13 10 8 5 3 1 1 1 3 6 9 12 14 15 16 16 16 17 16 15 14 11 9 8 7 8 9 11
18 18 22 30 31 24 20 18 22 25 25 24 22 20 16 12 10 7 5 3 2 1 3 6 9 11 13 13 14 15 15 15 13 15 14 10 9 9 7 8 7 7 8
27 23 31 32 28 24 20 22 25 28 27 24 22 18 15 11 8 6 5 2 1 4 6 8 11 12 12 12 14 14 14 13 15 12 10 7 8 9 7 6 5 4 6
Wind_Direction
225 214 215 218 219 222 226 224 217 213 209 207 208 205 204 193 194 208 223 220 218 245 273 284 279 286 296 307 307 295 280 263 238 283 294 302 302 312 316 319 304 307 312
230 221 217 217 220 221 223 217 215 217 214 213 211 208 203 191 191 214 226 229 235 250 273 271 278 289 298 309 310 303 297 286 261 273 296 308 311 325 321 318 304 303 313
228 223 218 220 221 220 219 210 216 221 218 212 212 208 204 201 200 215 229 236 243 253 262 272 285 295 304 313 310 303 304 305 288 265 288 303 310 319 316 314 310 315 318
231 219 218 218 221 222 214 214 213 216 214 210 212 209 209 212 204 219 233 240 240 254 265 277 293 297 306 311 306 307 311 316 327 300 312 308 319 320 310 308 313 320 322
236 226 222 222 217 214 211 215 208 206 206 207 210 211 210 210 199 222 233 241 245 258 270 284 291 303 312 312 317 338 357 344 333 331 323 316 327 323 318 315 309 320 325
238 236 229 225 219 218 216 213 208 211 209 208 210 210 207 203 195 229 240 243 258 272 279 283 303 313 323 346 21 2 348 350 338 325 315 310 308 306 314 317 311 312 307
238 236 229 230 225 221 219 216 209 203 206 211 213 210 214 221 197 237 244 247 256 262 272 294 304 307 283 157 23 13 6 354 331 318 311 312 310 315 312 305 307 312 284
242 233 230 232 225 220 217 212 210 206 201 210 216 213 221 231 227 234 241 238 248 256 279 294 294 277 211 221 15 356 355 355 341 331 318 323 315 308 306 299 292 294 300
251 240 237 240 224 225 217 212 210 204 217 208 221 223 229 224 216 206 229 238 250 265 271 283 260 233 223 242 310 326 336 344 336 324 317 312 318 307 312 301 291 294 291
290 273 263 251 240 231 226 216 211 210 213 213 216 220 233 229 214 221 231 246 258 257 274 253 239 234 236 248 293 311 324 332 330 325 325 326 318 305 303 296 290 290 294
326 299 275 261 255 247 235 224 215 209 204 215 215 232 232 220 228 246 254 249 247 259 256 240 260 259 248 259 281 303 315 319 323 324 327 335 343 344 335 334 327 298 287
345 318 290 281 268 248 234 217 205 203 194 198 195 220 231 226 248 262 252 236 254 251 237 264 281 263 245 269 275 290 308 315 326 330 324 325 328 334 337 336 325 318 310
338 335 310 292 276 256 226 207 192 190 185 186 193 209 229 234 240 250 222 227 227 238 269 284 256 259 275 276 276 272 289 316 327 326 318 318 326 325 326 324 320 322 323
327 333 330 305 279 248 222 210 184 169 174 177 194 215 217 239 226 223 208 198 199 222 187 242 257 299 281 266 254 261 269 302 314 314 306 305 314 314 308 315 318 323 324
320 319 328 309 281 223 202 190 184 192 182 184 197 192 220 233 230 216 195 199 203 176 227 265 259 287 286 274 270 265 269 284 298 304 306 308 309 314 314 314 314 314 303
306 310 320 307 283 205 193 187 189 187 183 200 214 213 225 229 185 176 183 169 167 220 271 292 285 286 303 303 291 280 273 282 297 299 303 306 303 310 311 311 310 303 299
294 301 307 293 239 220 196 176 161 181 196 196 202 218 223 196 168 171 160 168 212 265 281 274 273 325 331 322 309 294 290 305 307 307 305 306 310 313 316 313 310 304 299
285 284 284 279 262 232 203 190 171 169 169 165 174 164 160 158 151 155 169 197 234 259 232 231 293 325 327 323 341 333 324 319 317 312 312 314 316 316 314 311 308 303 301
274 274 283 280 254 223 201 187 172 166 167 148 143 148 150 147 154 171 213 241 258 223 219 274 314 300 299 315 320 318 315 313 312 312 315 315 317 315 312 309 305 305 302
268 265 270 263 231 193 181 167 164 166 164 160 160 157 158 166 171 220 226 197 177 182 319 312 281 270 294 306 312 313 315 317 317 316 314 313 313 311 310 309 309 310 311
257 251 246 230 204 179 164 169 170 170 168 169 164 165 173 175 193 173 153 131 99 321 293 285 266 286 298 302 314 321 321 318 316 313 310 310 310 309 311 300 301 306 306
234 219 212 211 191 172 174 174 175 179 177 170 165 169 175 174 167 147 125 116 276 258 269 278 273 293 299 314 322 323 320 317 317 316 313 312 309 308 307 299 304 312 317
225 211 214 199 186 172 169 167 177 187 179 171 167 164 165 165 148 132 129 132 205 265 279 286 298 310 311 314 317 320 319 321 322 322 318 315 312 310 307 304 307 319 326
227 207 205 180 156 164 170 165 177 182 168 160 156 156 154 147 138 134 130 137 171 252 320 330 325 317 311 310 315 323 327 328 326 326 324 320 318 320 316 313 324 328 326
225 198 187 155 157 172 177 167 169 165 159 154 153 146 143 142 138 135 140 151 162 18 349 339 328 320 317 314 319 330 334 333 333 332 335 334 332 336 322 322 336 348 342
218 185 149 147 154 170 166 156 154 157 155 152 144 139 141 138 136 141 154 163 17 349 350 341 333 332 328 325 328 336 339 341 342 343 346 353 352 358 354 1 20 355 357